Tracking 35055 objects as of 19-Aug-2026
HD Live streaming from Space Station
objects crossing your sky now

STARLINK-1845

Track STARLINK-1845 now!
10-day predictions
STARLINK-1845 is classified as:


NORAD ID: 47135
Int'l Code: 2020-088P
Launch date: November 25, 2020
Source: United States (US)
Launch site: AIR FORCE EASTERN TEST RANGE (AFETR)
Your satellite tracking list
Your tracking list is empty




NASA's NSSDC Master Catalog

Two Line Element Set (TLE):
1 47135U 20088P   26230.66668981  .00284329  40724-4  93631-3 0  9995
2 47135  53.0356 195.5798 0007820  73.4963 282.2078 15.89981048  5857
Source of the keplerian elements: AFSPC